GFSGBSN_850_temp_063.txt.gz
Temp
1 1 1 2 2 2 2 2 2 2 2 3 4 4 4 5 6 5 6 7 8 9 9 8 9 11 12 10 13 16 15 15 15 15 16 16 16 16 16 16 15 16 18 16 18 17 16
1 1 1 1 1 1 2 2 2 2 2 2 3 4 4 4 5 6 6 6 8 8 8 8 8 10 9 6 14 15 15 16 15 15 15 16 17 17 16 16 17 17 16 17 17 17 16
1 1 1 1 1 1 1 1 2 1 1 2 2 3 4 4 5 5 5 6 7 7 7 9 9 9 7 12 14 14 14 15 14 15 15 16 16 16 16 16 17 16 17 17 18 17 17
1 1 1 1 1 1 1 1 1 1 2 3 3 3 3 3 4 4 5 6 7 8 8 9 9 9 7 13 14 15 14 14 14 14 14 15 15 15 16 16 15 17 16 17 18 15 15
1 1 1 1 1 1 1 1 1 1 2 2 2 3 3 3 3 4 5 6 7 8 8 8 9 9 7 11 13 14 14 14 15 13 14 14 14 15 15 16 16 14 17 15 17 16 16
0 0 0 0 0 0 0 0 1 1 2 2 2 3 3 3 3 3 4 5 7 6 6 6 6 9 11 11 13 13 13 13 13 14 12 13 13 15 14 16 16 16 15 15 16 16 16
-0 -0 0 0 -0 -0 -0 0 -0 1 1 2 2 2 3 2 3 3 4 5 6 5 5 5 5 9 11 10 11 13 13 13 12 13 13 12 14 14 15 15 15 15 15 16 16 16 16
-1 -0 -0 -0 -1 -1 -1 -1 -1 0 1 1 2 2 2 2 3 3 3 3 2 2 2 4 7 6 10 11 6 12 12 12 12 13 13 13 13 15 14 15 16 16 16 16 16 16 16
-0 -1 -1 -1 -1 -1 -0 -1 -1 0 1 1 1 2 2 2 2 3 3 2 2 2 3 5 6 5 7 9 7 9 11 12 13 12 13 14 15 15 15 14 15 15 15 15 16 15 16
-1 -1 -1 -1 -1 -1 -1 -1 -0 -0 0 1 1 1 2 2 2 2 3 2 3 3 4 6 6 7 8 9 8 11 11 13 12 13 13 14 15 14 15 15 15 15 15 16 15 16 17
-1 -1 -1 -1 -1 -1 -1 -0 -0 0 0 0 1 1 1 1 2 2 2 2 3 4 5 11 9 10 10 10 12 11 12 12 13 13 13 14 13 14 14 15 15 17 15 15 15 15 15
-1 -1 -1 -1 -2 -1 -1 -1 -0 -0 0 0 0 1 1 1 1 2 2 3 4 4 6 10 11 10 10 10 11 11 11 12 14 13 13 15 14 15 17 15 15 16 16 15 14 14 14
-2 -1 -1 -1 -1 -1 -1 -1 -1 -0 -0 0 0 1 0 1 1 1 2 3 4 4 9 10 10 11 11 11 11 12 11 11 13 12 12 14 14 15 15 15 14 16 16 15 14 14 15
-2 -1 -1 -1 -1 -1 -2 -1 -1 -1 -0 -0 0 0 1 1 1 2 1 2 3 8 8 10 10 10 10 12 12 12 11 11 13 13 13 13 13 14 15 15 15 15 16 15 15 14 16
-2 -2 -2 -1 -1 -2 -2 -2 -1 -1 -0 -0 -0 0 0 2 1 2 1 2 5 6 8 7 9 10 10 12 11 12 11 11 13 13 13 13 14 14 14 15 16 14 14 16 14 12 14
-3 -2 -2 -2 -1 -1 -2 -1 -1 -1 -1 -0 -1 -0 1 2 2 1 1 3 4 7 7 7 7 8 8 9 10 11 11 11 12 13 14 13 13 15 16 16 15 16 16 15 13 15 14
-2 -3 -2 -2 -2 -1 -2 -2 -2 -1 -1 -1 -1 -0 1 2 2 1 2 2 4 6 6 6 6 7 7 8 9 10 11 11 11 11 13 13 14 14 15 15 15 15 15 15 16 14 16
-3 -3 -3 -3 -2 -2 -2 -2 -2 -1 -1 -2 -2 -0 1 1 1 1 2 2 4 5 6 6 7 7 7 8 8 9 9 10 9 11 12 13 12 12 14 15 15 16 16 16 15 14 12
-3 -2 -3 -2 -2 -2 -2 -2 -2 -1 -1 -2 -1 -0 1 1 1 1 2 2 4 5 6 6 6 6 7 7 8 8 8 10 9 11 11 12 12 12 13 14 14 15 15 15 13 12 15
-3 -3 -3 -3 -2 -2 -2 -2 -2 -1 -1 -2 -1 -0 -0 0 1 2 2 2 3 3 4 5 5 6 6 6 8 8 8 9 9 10 11 11 11 11 12 12 12 13 14 15 16 13 14
-3 -3 -3 -3 -2 -2 -2 -2 -2 -1 -1 -2 -1 -1 0 0 0 1 3 3 3 4 4 4 5 5 6 6 6 7 8 8 9 9 10 10 10 10 11 11 11 12 13 14 14 15 15
-3 -3 -3 -3 -2 -2 -2 -2 -2 -1 -1 -2 -1 -0 -0 1 1 1 1 3 4 4 5 4 4 5 5 5 6 6 6 7 7 8 8 8 10 9 10 11 12 12 13 13 14 14 14
-3 -2 -3 -2 -2 -2 -2 -2 -2 -1 -2 -2 -1 -1 -0 2 1 1 2 3 4 5 4 5 5 4 4 5 5 5 5 6 6 6 7 7 8 9 10 9 11 11 12 13 13 14 14
-2 -2 -2 -2 -2 -2 -2 -2 -2 -2 -2 -2 -1 -1 -0 1 2 2 3 3 4 5 4 4 5 4 5 5 5 6 4 5 5 6 7 7 7 7 9 8 10 12 12 12 13 13 13
-2 -2 -2 -2 -2 -2 -2 -2 -2 -2 -2 -2 -1 -1 -0 1 2 2 3 3 4 4 4 4 4 3 4 4 4 5 5 5 5 5 6 7 7 7 8 10 10 13 12 12 12 13 10
-1 -1 -1 -1 -1 -2 -2 -2 -2 -2 -1 -1 -1 -1 -0 1 2 2 2 3 3 2 2 3 3 2 3 2 3 4 5 6 7 7 6 6 7 7 7 8 9 11 11 10 11 12 10
-1 -1 -2 -1 -1 -1 -1 -1 -1 -1 -1 -1 -1 -1 -1 -1 2 2 3 2 3 3 3 3 3 2 3 2 4 4 5 6 6 6 7 6 6 6 7 8 9 10 10 10 12 12 11
-1 -1 -1 -1 -1 -1 -1 -1 -1 -1 -1 -1 -1 -1 -1 -1 1 2 3 4 3 3 3 3 2 2 2 3 3 4 4 6 6 7 8 7 7 7 8 7 7 9 10 11 11 10 10
-0 -0 -0 -0 -0 -1 -1 -1 -1 -1 -1 -1 -1 -1 -0 -0 -0 1 2 4 4 5 4 3 4 3 3 3 3 4 4 3 6 7 6 8 8 8 8 9 8 8 8 8 7 7 7

GFSGBSN_850_temp_066.txt.gz
Temp
2 1 1 1 2 2 2 2 2 2 2 2 3 3 5 6 6 6 7 7 8 8 8 8 8 9 11 10 13 14 15 14 14 13 15 16 17 18 20 21 20 20 22 22 21 21 20
1 1 1 1 1 1 1 1 2 2 2 2 2 3 4 5 5 5 6 7 8 8 8 8 9 8 7 10 13 14 14 14 13 13 15 16 18 18 19 20 20 21 21 22 21 21 21
2 2 1 1 1 1 1 1 1 1 1 2 3 4 4 4 4 4 6 7 7 8 9 8 8 7 5 9 13 14 13 13 13 13 15 16 17 17 19 20 19 20 20 22 22 21 22
1 1 2 1 1 1 1 1 1 1 1 2 2 3 3 3 4 4 5 7 7 8 9 8 8 6 6 11 12 13 14 13 13 13 12 15 15 16 17 19 19 20 21 21 23 23 21
1 0 1 1 1 1 1 1 1 0 1 1 2 2 3 3 3 4 5 7 7 8 8 7 7 5 9 10 11 13 13 12 12 12 12 13 14 16 18 19 20 20 21 21 22 22 22
0 0 -0 1 1 1 0 0 0 0 1 1 2 2 2 3 3 4 5 7 7 6 5 6 4 6 10 11 11 11 12 11 11 13 13 13 15 18 18 19 19 20 20 21 21 22 20
0 1 -0 -0 1 1 -0 -0 0 -0 0 1 1 1 2 2 3 3 5 5 7 7 5 7 9 8 9 10 10 11 10 11 12 13 15 15 17 17 19 19 21 21 21 21 22 22 20
-0 -0 -0 0 1 0 -1 -0 0 -1 -0 0 1 1 1 2 3 3 3 4 2 1 3 5 6 7 8 8 9 10 10 11 13 15 17 16 16 18 20 20 19 19 20 21 22 21 20
-1 -0 0 -0 -0 -0 -1 -1 -0 -1 -0 0 1 1 1 2 2 3 3 3 2 2 5 7 7 7 8 7 8 10 10 10 13 14 16 17 17 18 18 18 18 19 19 20 20 20 21
-1 -1 -0 -0 -0 -0 -0 -1 -1 -1 -0 0 0 1 1 2 2 2 3 2 2 2 6 10 9 9 7 8 9 10 9 9 12 14 16 16 18 17 18 17 18 18 20 20 20 19 20
-1 -1 -1 -0 -0 -0 -1 -1 -1 -0 -0 0 0 0 1 1 1 2 2 3 2 3 9 12 11 9 9 10 12 11 9 10 11 13 15 16 16 17 17 18 19 19 20 19 19 19 19
-1 -1 -1 -1 -1 -1 -1 -1 -1 -1 -0 -0 0 0 0 1 1 2 2 3 3 6 9 12 12 12 11 11 12 11 10 10 11 10 10 14 17 17 18 19 19 19 18 18 19 19 18
-1 -1 -2 -2 -1 -1 -1 -1 -1 -1 -1 -0 -0 -0 0 0 2 2 3 3 7 8 12 12 11 12 12 12 12 12 10 10 12 10 10 12 16 17 18 18 18 18 18 17 17 17 18
-2 -2 -1 -1 -1 -1 -1 -1 -1 -1 -1 -0 -0 -0 -0 0 1 1 2 4 6 10 10 12 11 12 12 13 13 12 12 10 12 13 14 12 13 17 17 18 17 18 19 19 17 18 19
-2 -2 -2 -2 -2 -1 -1 -1 -1 -1 -1 -1 -1 -1 -0 0 1 2 1 4 8 9 10 9 11 12 12 13 12 13 12 13 13 14 14 14 14 17 17 18 19 17 17 20 18 17 19
-2 -2 -2 -2 -2 -1 -1 -1 -2 -1 -1 -1 -1 -1 0 1 1 1 2 4 7 9 9 9 9 10 10 11 11 10 11 12 13 14 16 16 15 17 17 17 19 19 20 17 17 17 17
-2 -3 -2 -2 -2 -2 -2 -1 -2 -1 -1 -1 -1 0 2 2 1 1 2 5 7 8 8 8 9 9 10 10 11 9 7 9 11 12 15 15 16 16 17 16 18 18 18 18 19 19 18
-3 -2 -2 -2 -2 -2 -2 -2 -2 -1 -1 -2 -1 1 1 1 1 3 2 5 5 8 8 9 8 9 9 9 10 10 8 9 9 10 13 14 15 15 16 18 19 20 19 19 17 17 18
-3 -3 -3 -3 -3 -2 -2 -2 -2 -1 -1 -2 -1 1 1 1 3 3 3 5 5 7 8 9 8 8 9 9 9 11 6 8 9 9 11 13 14 14 15 16 17 17 18 18 19 18 17
-3 -3 -3 -3 -3 -3 -2 -2 -2 -1 -1 -2 -1 0 1 0 1 4 4 5 5 6 7 8 8 8 8 9 10 9 10 7 7 9 10 12 14 14 15 16 16 16 17 18 17 16 17
-3 -3 -3 -3 -3 -2 -2 -2 -2 -1 -1 -2 -2 -0 3 2 2 3 3 5 4 6 6 7 7 7 8 7 8 9 10 10 8 9 10 11 10 12 13 13 14 14 15 16 17 18 17
-4 -3 -3 -3 -3 -3 -2 -2 -2 -2 -1 -2 -2 -1 0 3 0 2 2 3 4 7 7 7 7 8 8 7 8 8 8 9 9 9 10 11 9 11 12 13 14 14 15 16 17 17 17
-3 -3 -3 -3 -3 -3 -2 -2 -2 -2 -2 -2 -2 -1 -1 3 4 3 3 4 4 5 7 7 7 6 6 7 7 7 7 7 8 8 8 9 8 10 11 13 13 13 15 16 16 17 17
-3 -3 -2 -2 -2 -2 -2 -2 -2 -2 -2 -3 -2 -1 -1 1 3 4 5 3 3 5 6 6 6 5 6 5 5 6 7 7 8 8 8 9 9 10 10 10 10 14 15 16 16 15 16
-2 -2 -2 -2 -2 -2 -2 -2 -2 -2 -2 -3 -2 -2 -1 1 3 4 5 5 5 3 6 5 5 3 2 3 6 7 7 7 8 8 9 9 9 9 10 11 13 15 14 15 15 13 14
-2 -1 -1 -1 -2 -1 -1 -2 -2 -2 -2 -2 -2 -2 -1 1 4 4 5 5 4 6 4 3 1 1 1 5 6 6 7 8 9 8 9 9 9 10 9 10 11 14 13 13 14 14 14
-1 -1 -1 -1 -1 -1 -1 -1 -1 -2 -1 -2 -2 -2 -2 -1 1 4 5 5 5 4 5 4 2 1 1 5 5 7 8 8 9 7 6 7 8 8 9 10 12 14 13 12 13 13 12
-1 -1 -1 -1 -1 -1 -1 -1 -1 -2 -2 -2 -2 -1 -1 -1 1 1 3 4 5 3 3 3 2 2 3 4 6 7 7 9 9 10 9 8 8 8 9 9 9 11 13 13 11 11 11
-1 -1 -1 -0 -1 -1 -1 -1 -1 -1 -1 -1 -1 -1 -1 -1 0 1 2 3 4 4 4 2 5 5 4 6 7 8 7 7 9 9 10 9 11 11 11 11 11 10 11 9 8 8 8

GFSGBSN_850_temp_069.txt.gz
Temp
1 2 2 2 2 2 2 2 2 3 2 3 3 4 5 6 6 6 6 7 7 8 8 8 9 9 10 11 13 15 14 14 15 14 15 17 19 20 21 23 23 23 24 24 24 24 24
2 2 1 1 1 2 1 1 1 1 2 2 2 3 4 5 5 6 6 7 7 8 8 9 9 9 6 10 13 14 13 14 15 14 16 17 19 20 21 22 24 24 24 23 23 24 24
1 2 2 3 2 1 1 1 1 1 2 1 2 3 3 4 4 5 6 7 7 8 9 9 9 8 7 11 13 14 13 13 14 14 16 17 18 20 21 22 22 23 23 24 24 24 25
1 1 2 1 2 2 1 1 1 1 1 1 2 2 3 3 4 5 6 7 7 8 9 9 9 6 9 12 12 12 12 13 14 14 14 15 17 18 19 21 22 22 22 22 24 25 25
1 1 1 0 1 1 1 1 1 1 0 1 1 2 2 3 4 4 5 7 8 8 9 8 7 7 11 11 11 12 12 12 13 13 14 15 16 17 18 20 21 22 21 22 24 26 25
0 1 1 1 0 1 1 1 0 0 0 1 1 2 2 2 3 4 5 7 7 7 6 6 7 8 10 13 13 13 12 12 13 12 14 15 16 18 19 20 19 21 22 23 24 26 24
0 -0 0 1 0 1 1 1 0 1 0 -0 1 1 1 2 3 3 5 7 9 9 8 10 12 11 13 13 12 13 12 12 12 12 11 16 17 17 19 19 21 22 24 24 25 26 24
0 -0 0 1 0 1 1 0 -0 0 0 -0 1 1 1 2 3 3 5 7 5 4 5 7 8 9 10 10 11 12 11 12 11 12 13 17 17 19 20 20 21 21 22 23 24 25 23
-0 -0 -0 -0 0 0 -0 -0 -0 -0 -0 0 0 1 1 1 3 4 5 5 5 4 7 10 11 11 11 11 11 12 12 12 11 10 11 14 19 19 19 19 20 21 21 22 23 24 23
0 0 -0 -0 -0 0 0 0 -0 -0 -0 0 0 0 1 2 3 4 6 5 5 4 8 14 14 13 11 10 12 11 12 11 9 9 10 14 18 18 18 18 21 20 22 22 22 22 21
-0 -0 -0 -0 -0 -0 -0 -0 -0 -1 -0 -0 0 0 0 1 2 4 5 5 4 4 12 15 14 12 11 12 13 13 12 11 10 9 9 11 16 17 17 18 20 20 22 22 22 21 21
-1 -1 -1 -1 -1 -0 -1 -1 -0 -0 -0 -0 -0 0 0 2 2 3 4 4 5 8 12 14 15 15 14 14 14 13 12 11 11 9 9 10 12 14 17 19 20 21 21 21 21 21 19
-1 -1 -1 -1 -1 -1 -1 -0 -0 -1 -1 -0 -0 -0 0 1 3 3 3 4 9 10 15 15 14 15 15 15 15 14 11 10 9 7 9 11 12 15 16 18 19 20 19 18 18 18 18
-1 -1 -1 -1 -1 -1 -1 -1 -1 -1 -1 -0 -1 -0 -0 1 1 2 3 7 8 13 14 16 14 14 15 16 16 14 13 11 11 10 9 9 10 14 17 18 18 19 20 19 18 18 20
-2 -2 -2 -1 -2 -2 -1 -1 -1 -1 -1 -1 -1 -0 1 1 1 2 3 6 10 12 14 13 13 13 15 15 14 15 14 13 12 11 8 11 11 15 15 18 18 19 19 21 20 19 20
-3 -2 -2 -2 -1 -2 -1 -1 -2 -2 -1 -1 -0 1 1 2 2 1 3 5 10 12 11 12 11 13 13 14 13 13 13 11 10 12 12 11 12 15 14 17 17 18 21 18 20 17 17
-2 -3 -2 -2 -2 -2 -2 -2 -1 -1 -2 -1 -0 1 3 2 2 1 3 6 9 10 11 10 11 12 12 13 13 11 11 9 8 9 11 14 14 14 16 14 16 16 18 19 20 20 18
-3 -2 -2 -2 -2 -3 -2 -2 -2 -2 -2 -2 0 1 3 2 1 3 3 7 8 9 10 10 11 11 11 12 12 12 8 9 7 8 10 14 14 13 15 18 17 18 19 19 18 18 20
-3 -2 -3 -2 -2 -2 -2 -2 -2 -2 -2 0 -0 2 2 1 3 4 6 7 8 9 10 10 10 11 12 11 10 12 10 8 7 7 9 8 12 12 13 15 19 17 18 19 19 19 15
-3 -3 -3 -2 -2 -2 -3 -2 -2 -2 -2 -2 -1 1 3 1 2 5 6 6 7 8 9 9 10 11 11 10 11 11 11 9 8 7 7 9 11 12 14 15 18 17 19 20 19 17 18
-3 -3 -3 -3 -2 -3 -3 -3 -2 -2 -2 -2 -1 1 3 3 4 5 6 6 7 8 8 9 9 10 9 8 9 10 11 12 11 7 8 10 8 11 15 14 16 17 18 19 19 19 18
-3 -3 -3 -3 -3 -3 -3 -3 -2 -2 -2 -2 -1 1 3 4 5 5 6 6 6 8 9 8 9 10 10 10 10 10 11 11 10 10 8 8 8 7 12 15 15 16 17 17 18 18 18
-3 -3 -3 -3 -3 -3 -3 -2 -2 -2 -3 -2 -2 -0 1 3 5 4 5 6 7 8 8 8 9 10 10 9 8 9 9 9 10 10 9 8 7 7 9 11 13 13 15 16 16 17 18
-3 -3 -3 -2 -2 -3 -3 -2 -2 -2 -2 -2 -1 -0 0 2 4 6 6 4 6 7 6 6 9 8 7 6 7 8 8 9 9 9 10 9 8 8 8 9 9 13 17 17 16 16 17
-2 -2 -2 -2 -2 -2 -2 -2 -2 -2 -2 -2 -1 -1 0 1 5 6 6 6 6 6 5 6 6 6 4 5 6 7 8 8 9 10 10 10 9 9 8 9 10 14 14 15 14 14 16
-2 -2 -1 -1 -1 -2 -2 -2 -2 -2 -2 -2 -2 -1 -1 0 4 5 6 6 6 6 5 5 3 2 3 3 5 7 8 10 10 10 11 11 10 10 10 8 9 12 15 14 16 12 16
-1 -1 -1 -1 -1 -1 -1 -1 -1 -2 -2 -2 -2 -2 -2 -1 1 2 5 6 6 7 5 6 3 2 2 4 5 7 9 11 9 8 9 9 9 9 9 11 13 15 15 14 12 10 14
-1 -1 -1 -1 -1 -1 -1 -1 -1 -1 -2 -2 -1 -2 -2 -1 0 2 3 4 5 5 4 4 3 2 2 4 6 8 8 10 10 11 10 10 9 9 10 10 10 14 14 13 12 12 12
-1 -1 -1 -1 -1 -1 -1 -1 -1 -1 -1 -2 -2 -2 -2 -2 -1 1 2 4 3 3 2 2 4 3 4 6 7 8 9 9 11 10 12 10 12 11 12 12 13 12 11 10 10 10 9

GFSGBSN_850_temp_072.txt.gz
Temp
2 3 2 2 2 2 2 2 2 2 3 3 3 3 3 4 6 6 7 8 8 9 8 9 9 9 9 11 12 15 15 15 15 15 15 16 17 19 20 22 22 23 24 24 24 24 25
2 2 2 3 2 2 2 2 2 1 1 1 2 2 3 3 4 5 7 7 8 8 9 9 9 8 6 9 14 15 15 15 15 17 16 16 18 19 20 22 22 23 24 24 24 25 25
2 2 2 2 2 2 2 2 2 2 1 1 1 2 2 3 3 4 6 7 7 8 9 9 9 8 5 10 14 14 14 15 15 15 16 17 18 19 20 21 22 23 23 24 24 24 24
2 2 2 1 2 2 2 2 2 1 1 1 1 1 2 3 3 5 7 7 8 8 9 9 8 6 7 12 12 13 13 14 14 14 15 15 16 17 18 20 21 22 22 21 24 24 25
1 1 1 1 1 1 1 2 2 1 1 1 1 1 1 2 4 5 6 8 9 8 8 7 8 7 10 13 12 14 14 13 14 15 15 15 16 15 17 19 19 20 20 21 22 25 25
1 1 1 1 1 1 1 1 1 1 1 1 0 1 1 2 3 5 6 8 10 8 8 7 7 9 11 13 14 14 14 13 14 14 14 15 16 16 17 17 17 18 20 21 22 25 25
0 0 1 1 1 1 1 1 1 1 1 1 1 1 1 1 2 4 6 7 10 9 8 11 12 12 13 14 13 14 14 14 14 14 14 15 14 15 17 18 19 20 20 21 24 25 25
1 0 0 0 0 1 1 1 1 1 0 0 0 1 1 1 2 4 5 6 7 6 7 8 9 10 11 11 12 12 14 13 14 14 15 13 13 15 16 19 19 19 19 20 23 25 24
0 1 0 0 0 0 0 1 1 1 0 0 0 0 1 1 3 5 5 7 6 6 7 10 13 13 14 13 13 13 13 14 14 14 13 11 14 15 14 18 18 19 19 20 21 23 25
0 0 0 0 0 0 0 0 0 0 0 0 0 0 1 1 2 3 6 7 6 5 7 14 14 14 13 12 14 13 13 14 12 12 13 9 10 14 11 13 18 18 20 21 21 21 21
-0 -0 0 0 -0 -0 0 -0 -0 -0 -0 0 -0 0 0 1 2 3 5 5 6 5 9 16 15 13 14 14 15 14 13 14 13 11 10 10 11 12 12 14 18 18 19 19 21 21 21
-1 -1 -1 -1 -1 -0 -0 0 0 0 0 -0 -0 0 0 1 2 3 4 4 5 6 10 15 16 15 15 15 16 14 14 13 12 12 12 11 12 10 10 13 16 18 17 16 19 20 18
-2 -1 -1 -1 -1 -0 -1 -1 -0 -1 -0 -0 -0 0 0 0 2 2 3 4 6 9 16 16 16 16 16 16 17 16 13 12 12 9 10 11 11 10 11 11 15 15 13 12 15 17 17
-2 -1 -1 -1 -1 -1 -1 -1 -1 -1 -1 -1 -1 -1 -0 0 1 2 3 5 7 13 14 17 16 16 15 16 17 16 14 13 13 12 10 9 9 11 11 12 12 15 14 15 14 16 18
-2 -2 -2 -2 -1 -1 -1 -1 -1 -1 -1 -1 -1 -1 -0 1 1 2 2 4 9 12 15 15 16 13 14 17 16 16 15 14 14 13 9 10 11 13 12 12 12 13 14 17 17 18 18
-3 -2 -2 -2 -2 -2 -1 -1 -1 -1 -1 -1 -1 -1 0 2 2 2 2 4 9 12 14 13 12 14 13 15 14 15 13 11 10 12 13 10 8 12 12 13 12 12 15 14 17 14 14
-2 -2 -2 -2 -2 -2 -2 -1 -1 -2 -2 -2 -2 -0 2 2 2 1 2 5 8 9 10 12 11 12 13 14 14 14 13 8 10 10 11 11 8 11 10 10 12 13 15 15 17 18 17
-2 -2 -2 -2 -2 -2 -2 -2 -2 -2 -2 -2 -2 0 3 3 1 1 2 5 8 10 11 11 11 11 11 12 13 13 13 9 9 9 9 9 9 10 11 15 14 15 14 16 15 15 18
-2 -2 -2 -2 -2 -2 -2 -2 -2 -2 -2 -2 -1 2 2 1 2 3 5 6 7 9 10 10 11 11 12 11 11 12 13 10 9 8 7 7 9 10 11 14 12 12 13 14 15 15 15
-3 -3 -3 -2 -2 -2 -2 -2 -2 -2 -3 -2 -1 1 3 1 3 5 5 6 7 9 10 10 11 12 11 11 12 10 10 10 9 9 6 7 8 10 11 11 10 12 14 15 15 12 14
-3 -3 -3 -3 -3 -2 -2 -2 -2 -2 -2 -2 -2 1 2 3 3 4 5 4 7 8 10 10 10 10 10 10 11 10 12 11 9 7 8 6 7 8 8 10 11 11 13 14 15 16 16
-3 -3 -3 -3 -3 -3 -2 -2 -3 -3 -2 -2 -1 1 3 1 4 5 6 6 7 7 9 9 9 10 11 10 11 10 11 10 9 9 9 7 7 7 9 11 12 9 15 15 14 15 18
-3 -3 -3 -3 -3 -3 -2 -2 -2 -2 -3 -2 -2 -0 1 2 4 4 4 6 7 8 8 7 8 9 9 10 9 9 9 8 8 9 8 8 7 6 7 8 10 12 13 14 15 16 16
-3 -3 -2 -2 -2 -3 -2 -2 -2 -2 -2 -3 -2 -0 0 1 4 4 6 6 6 8 8 9 9 8 8 7 8 8 9 10 10 10 10 9 7 6 7 8 9 12 12 14 14 13 14
-3 -2 -2 -2 -2 -2 -2 -2 -2 -2 -2 -3 -2 -1 0 1 4 5 6 6 5 6 7 7 7 5 5 7 7 7 8 8 9 10 10 10 9 6 7 8 9 12 11 11 14 11 12
-2 -2 -2 -2 -2 -1 -1 -2 -2 -2 -2 -2 -2 -2 -1 -0 3 5 6 6 5 6 6 6 5 4 4 5 4 5 7 9 9 10 11 10 9 8 7 8 8 11 11 9 9 8 11
-2 -2 -1 -1 -1 -1 -1 -2 -2 -2 -2 -2 -2 -2 -1 -1 1 1 3 3 5 7 6 6 3 4 4 5 5 5 7 10 9 9 9 8 8 7 8 8 12 14 12 10 8 9 11
-2 -2 -1 -1 -1 -1 -1 -1 -1 -1 -1 -2 -1 -2 -2 -1 0 1 2 2 3 4 4 4 3 4 3 3 5 7 8 9 10 11 10 9 8 8 9 9 10 13 12 11 10 10 11
-2 -1 -1 -1 -1 -1 -1 -1 -1 -1 -1 -2 -2 -2 -2 -2 0 0 1 2 2 2 1 1 2 2 5 5 7 5 7 7 9 9 12 9 11 10 11 11 11 11 11 10 10 9 9

GFSGBSN_850_temp_075.txt.gz
Temp
2 2 2 2 2 2 2 2 2 2 2 2 3 3 3 3 5 6 7 7 7 8 8 8 8 8 8 8 12 15 15 15 15 15 15 15 15 15 15 17 18 18 19 20 21 22 22
2 2 2 2 2 2 2 2 2 2 2 2 2 2 4 4 4 5 7 8 8 8 8 8 7 7 6 5 15 14 14 15 14 15 15 16 16 16 17 17 17 19 20 20 21 22 22
2 2 2 2 2 2 2 2 2 2 2 2 2 2 2 4 5 6 7 7 8 9 8 7 7 6 4 11 14 14 14 14 14 15 15 15 15 15 16 16 19 19 18 19 20 21 20
2 2 2 2 2 2 1 1 2 2 2 1 1 1 2 2 4 6 7 7 8 9 8 7 7 6 5 14 13 13 13 13 13 14 14 15 15 15 15 17 17 17 18 17 19 20 21
1 1 1 1 1 1 1 1 1 1 1 1 1 0 1 2 3 5 7 8 9 9 9 7 6 6 6 12 13 14 14 14 14 14 14 15 15 15 15 14 14 15 15 16 19 21 21
1 1 1 1 1 1 1 1 1 1 1 1 1 1 1 1 2 5 7 8 10 9 8 8 6 5 9 13 14 13 14 14 14 14 14 14 14 12 12 12 12 14 15 16 18 20 21
1 1 1 1 1 1 1 1 1 1 1 1 1 1 1 1 3 5 6 7 7 8 8 8 9 9 11 13 13 12 14 14 14 13 12 14 11 11 12 13 14 15 16 16 18 21 21
0 0 1 1 1 1 1 1 1 1 1 1 1 1 1 1 3 5 5 6 7 6 6 7 9 9 10 11 10 11 13 13 13 11 12 11 10 12 14 15 16 15 15 16 18 20 20
0 0 0 1 1 1 0 0 0 1 1 1 0 0 0 1 3 4 4 5 6 6 4 6 9 9 10 12 11 12 13 13 12 11 12 11 13 13 13 14 14 13 13 17 17 19 19
-0 -0 0 0 0 0 0 0 0 0 0 1 0 0 0 1 3 3 5 5 6 6 4 9 12 13 13 13 13 13 14 13 12 11 10 9 10 11 11 12 13 11 14 16 18 18 14
-0 -0 -0 -0 -0 -0 -0 0 0 0 0 0 0 0 0 0 1 3 3 4 4 5 4 14 14 14 14 13 14 13 14 13 11 11 9 10 9 10 9 12 13 12 14 15 15 13 13
-1 -1 -1 -0 -1 -1 -0 -0 -0 -0 -0 -0 0 0 0 0 1 2 2 4 4 4 5 14 14 13 13 13 14 13 13 13 13 11 11 10 12 9 9 12 13 12 12 14 12 12 11
-1 -1 -1 -1 -1 -1 -1 -1 -0 -1 -1 -0 -0 0 -1 -0 0 2 2 3 4 5 12 15 13 14 13 14 14 13 12 10 9 8 8 10 10 11 10 9 11 11 11 10 11 11 11
-2 -2 -2 -2 -1 -1 -1 -1 -1 -1 -0 -0 -0 -1 -0 -0 1 1 -0 2 3 9 10 15 15 15 14 15 14 13 11 9 10 10 9 8 8 10 11 9 11 12 9 11 12 11 14
-2 -2 -2 -2 -2 -2 -1 -1 -1 -1 -1 -1 -1 -1 -1 1 1 1 0 1 5 8 12 12 13 13 13 14 14 14 11 11 12 10 8 9 10 11 11 11 10 10 9 11 11 13 11
-3 -2 -2 -2 -2 -2 -2 -2 -1 -1 -1 -1 -2 -1 -1 1 1 0 0 2 5 8 10 10 11 13 12 12 14 14 12 9 10 11 11 10 8 11 12 10 10 10 12 10 8 11 11
-3 -2 -2 -2 -2 -2 -2 -2 -2 -1 -2 -2 -2 -2 0 2 1 1 1 2 5 7 7 9 10 11 11 11 11 12 9 7 10 10 10 10 7 10 10 8 8 9 9 9 9 10 13
-3 -2 -2 -2 -2 -2 -2 -2 -2 -2 -2 -2 -2 -1 2 1 0 0 1 3 5 6 6 8 9 10 10 10 10 10 11 9 9 9 8 7 7 7 10 12 11 10 9 9 9 11 13
-2 -2 -2 -2 -2 -2 -2 -2 -2 -2 -2 -2 -2 -2 0 2 0 1 2 3 4 5 6 8 8 10 10 9 9 10 10 9 9 8 7 7 7 7 10 12 13 10 10 10 9 10 10
-2 -2 -3 -3 -2 -2 -2 -2 -2 -2 -2 -2 -2 -1 0 1 -0 1 2 3 4 6 6 7 8 9 9 9 10 9 10 9 9 8 7 7 7 7 8 8 7 7 9 11 10 10 11
-3 -3 -3 -3 -3 -2 -3 -2 -2 -2 -3 -3 -2 -1 0 -3 -0 0 2 2 4 5 8 8 8 8 8 7 8 8 10 8 8 7 6 6 5 7 8 9 9 9 9 8 11 10 10
-4 -3 -3 -3 -3 -3 -2 -2 -2 -3 -3 -3 -2 -1 1 -1 0 1 3 4 3 4 4 6 7 8 8 7 8 8 8 8 7 6 6 6 5 6 7 10 8 8 9 8 10 11 11
-3 -3 -3 -3 -3 -3 -2 -2 -2 -2 -3 -2 -2 -1 -2 1 2 0 1 3 5 6 7 7 5 5 5 6 6 8 7 7 8 7 5 6 6 5 6 8 7 8 9 9 10 11 11
-3 -3 -3 -3 -3 -2 -2 -3 -2 -2 -2 -3 -2 -1 -0 -2 0 2 4 4 2 4 5 7 6 5 5 6 7 7 8 8 7 6 7 7 6 5 5 7 9 9 12 11 10 11 12
-3 -3 -3 -2 -2 -2 -2 -2 -2 -2 -2 -3 -2 -2 -1 -3 1 2 3 5 4 4 4 5 7 5 6 6 4 4 5 6 6 8 7 7 6 5 6 6 8 10 9 9 10 8 8
-3 -3 -2 -2 -2 -2 -2 -2 -2 -2 -2 -2 -2 -2 -2 -2 -1 2 1 3 2 3 4 5 5 4 5 3 2 4 4 6 7 8 9 8 7 6 6 6 8 9 8 9 10 8 8
-3 -3 -2 -2 -2 -1 -1 -1 -2 -2 -2 -2 -2 -2 -2 -2 -0 1 1 0 0 1 1 4 4 3 4 2 1 2 4 8 6 7 6 6 6 5 6 6 7 11 9 10 8 7 8
-2 -2 -2 -2 -1 -1 -1 -1 -1 -2 -2 -2 -2 -2 -2 -2 -1 0 1 1 1 1 1 1 3 2 2 1 2 3 3 6 6 5 7 7 5 5 5 6 7 10 8 8 8 7 7
-2 -2 -2 -1 -1 -1 -1 -1 -1 -1 -2 -2 -3 -2 -2 -2 -1 -0 -0 0 1 1 1 -0 1 1 4 3 3 3 4 4 7 5 7 7 7 6 7 7 9 8 7 8 7 7 6

GFSGBSN_850_temp_081.txt.gz
Temp
2 2 2 3 3 3 3 3 2 2 2 3 3 3 3 4 6 7 7 8 8 8 8 8 7 7 8 7 11 14 13 14 13 14 14 13 13 13 12 12 13 12 14 15 16 16 17
2 2 2 2 2 2 2 2 2 2 2 2 2 2 2 3 5 6 8 8 8 8 8 8 6 5 3 3 13 13 13 13 13 14 14 13 14 14 14 13 12 14 14 15 16 16 16
2 2 2 2 2 2 2 2 1 2 2 1 2 2 2 3 4 6 7 8 8 8 8 7 6 5 2 9 13 12 13 13 13 13 13 14 14 13 14 13 15 15 13 13 14 15 14
1 1 2 2 2 2 2 1 1 1 1 2 1 2 2 3 3 5 7 8 9 9 8 8 7 5 4 12 12 13 12 13 13 13 13 14 14 13 13 14 14 13 13 12 15 15 16
2 1 1 1 1 1 1 1 1 1 1 1 1 1 1 2 3 4 6 7 8 8 8 8 7 5 5 10 11 12 13 13 13 13 13 13 13 13 13 11 10 11 11 11 13 16 15
1 1 1 1 1 1 1 1 1 1 1 1 1 1 1 1 2 3 5 7 7 7 6 6 4 4 9 11 11 12 13 12 13 13 13 13 13 10 8 9 9 10 10 11 11 15 14
1 1 1 0 1 1 1 1 1 1 1 1 1 1 0 0 2 3 4 6 5 5 5 5 5 5 8 10 10 11 11 12 12 13 10 12 9 8 9 9 11 11 11 11 12 13 14
0 0 0 0 0 0 1 1 1 1 0 0 0 0 0 0 1 2 3 2 1 1 1 5 6 7 8 8 7 12 10 12 11 10 10 10 8 10 10 10 10 10 10 10 12 14 14
-0 -0 -0 -0 0 0 0 0 0 0 0 0 0 0 0 0 1 2 2 2 3 3 2 5 6 7 7 8 6 9 9 11 10 9 9 8 10 11 10 10 10 10 10 10 11 13 13
-0 -1 -1 -0 -0 -0 -0 -0 -0 -0 -0 -0 0 0 -0 0 2 1 2 3 4 4 2 5 6 7 8 8 7 9 10 11 10 9 9 9 10 10 10 10 10 9 11 11 12 11 10
-1 -1 -1 -1 -1 -0 -1 -1 -1 -1 -0 -0 -0 -0 -0 -0 0 1 0 3 4 4 2 10 10 10 9 10 12 9 10 12 9 9 9 9 9 9 9 9 10 9 10 11 11 10 10
-1 -1 -1 -2 -2 -2 -1 -1 -1 -1 -1 -1 -1 -0 -0 0 0 1 1 3 4 2 3 8 12 10 9 11 12 11 11 12 11 9 9 9 10 9 9 10 10 10 10 10 10 10 9
-2 -2 -2 -2 -2 -2 -1 -1 -1 -1 -1 -1 -1 -1 -1 -0 1 0 1 2 1 1 7 8 8 9 10 10 11 11 10 9 7 7 7 8 8 9 9 8 9 9 9 7 7 8 9
-2 -2 -2 -2 -2 -2 -1 -1 -1 -1 -1 -1 -1 -1 -0 1 1 -0 -0 0 1 5 5 8 7 8 9 11 11 10 9 8 9 8 6 6 7 8 9 8 8 8 8 8 9 9 10
-2 -2 -3 -2 -2 -2 -2 -1 -1 -1 -2 -2 -1 -1 0 2 0 -0 -1 0 2 4 6 5 7 7 7 8 9 10 8 9 8 8 9 7 8 10 8 9 9 9 8 9 9 9 10
-2 -3 -3 -2 -2 -2 -2 -2 -2 -2 -2 -2 -2 -2 1 -0 -1 -1 -2 0 2 5 4 4 5 4 4 5 8 9 8 8 8 9 9 8 8 9 9 10 9 8 9 9 8 9 10
-3 -3 -3 -3 -2 -2 -2 -2 -2 -2 -2 -2 -2 -2 -0 -1 -1 -1 -1 0 2 4 4 4 4 3 3 4 7 8 8 7 8 8 8 8 8 8 9 9 8 9 8 7 8 9 10
-3 -3 -3 -2 -2 -2 -2 -2 -2 -2 -2 -3 -3 -6 -1 -1 -2 -1 -1 1 2 3 3 3 5 5 3 3 5 8 8 7 7 8 7 6 7 7 6 9 9 9 9 9 9 10 9
-4 -4 -3 -2 -2 -2 -2 -2 -2 -2 -2 -3 -3 -2 -1 -1 -2 -1 -1 1 1 1 2 3 4 5 3 2 3 7 7 7 8 7 6 6 7 5 7 8 8 8 8 8 8 8 9
-4 -3 -3 -2 -3 -3 -2 -2 -2 -2 -3 -3 -3 -3 -1 -2 -1 -3 -1 0 -0 2 2 3 3 4 4 2 4 7 8 7 7 6 7 7 5 6 6 6 6 6 8 8 6 8 9
-3 -3 -3 -3 -3 -3 -3 -2 -2 -3 -3 -3 -3 -4 -3 -6 -3 -2 -2 -2 0 1 3 3 3 4 4 3 4 7 7 6 6 6 5 5 5 5 5 6 7 7 7 8 8 8 7
-3 -3 -3 -3 -3 -3 -3 -3 -3 -3 -3 -3 -3 -3 -2 -2 -0 -1 -1 0 0 1 1 3 3 4 4 3 5 5 6 6 6 5 5 4 4 5 5 6 7 7 8 9 8 8 9
-3 -3 -3 -3 -3 -2 -2 -2 -3 -3 -3 -3 -4 -3 -3 -2 -1 -1 -1 -1 -0 -0 1 3 3 2 3 5 5 6 6 6 6 5 4 5 4 4 3 5 5 6 7 8 9 9 9
-3 -3 -3 -3 -3 -3 -2 -2 -3 -3 -3 -3 -3 -3 -3 -3 -1 0 0 0 -0 0 1 1 2 2 5 6 6 6 6 5 5 5 5 4 4 3 2 4 3 9 8 7 8 8 8
-3 -3 -3 -3 -3 -3 -2 -2 -2 -2 -2 -3 -3 -3 -3 -3 -1 -0 1 1 1 0 1 2 1 2 3 5 4 4 4 5 5 5 4 4 3 3 2 3 6 8 7 6 6 7 7
-3 -3 -3 -3 -3 -2 -2 -2 -2 -2 -2 -2 -3 -2 -3 -3 -3 -1 -1 -0 -0 0 1 1 2 3 4 1 2 4 3 5 5 6 5 4 4 3 3 3 4 8 8 7 6 7 6
-3 -3 -3 -3 -2 -2 -2 -2 -2 -2 -2 -2 -2 -2 -3 -3 -1 -1 -2 -1 0 -0 -0 0 0 2 3 -0 1 1 3 5 4 5 5 3 3 4 4 3 5 8 8 7 7 6 5
-4 -3 -3 -3 -2 -2 -2 -2 -2 -2 -2 -2 -2 -2 -3 -3 -2 -1 -1 -1 -1 -0 -3 0 -0 0 1 1 1 2 1 3 3 4 6 4 3 3 3 4 5 6 8 5 5 4 4
-3 -3 -3 -3 -3 -2 -2 -2 -2 -1 -2 -2 -2 -3 -3 -3 -2 -2 -1 -1 -1 -0 -0 -1 -1 -1 -1 0 0 2 1 1 3 3 5 4 5 4 5 4 4 4 5 4 3 3 2

GFSGBSN_850_temp_084.txt.gz
Temp
4 4 3 2 2 2 2 2 2 3 3 3 3 3 4 4 5 6 8 8 9 8 8 8 8 7 7 7 11 13 13 13 13 13 13 13 12 13 11 12 12 11 12 14 15 15 15
3 3 3 3 2 2 2 2 2 2 2 2 2 3 3 4 4 4 7 8 8 8 8 8 7 7 5 3 12 13 12 12 12 13 13 13 13 13 13 12 12 13 13 13 14 14 15
2 2 2 2 2 2 2 2 2 1 1 1 2 2 3 3 4 5 6 8 8 8 8 8 8 6 4 8 12 12 13 12 11 12 13 13 13 13 13 12 14 13 11 11 12 13 13
1 2 2 1 1 1 1 1 1 1 1 1 1 1 2 2 3 4 6 8 8 8 8 8 8 6 4 11 11 13 12 12 12 12 12 13 13 13 13 13 13 12 12 11 13 13 14
1 1 1 1 1 1 1 1 1 1 1 1 1 1 1 2 3 3 5 7 7 7 6 7 7 5 5 9 10 11 11 12 12 13 13 13 13 12 12 10 9 9 9 10 12 14 14
1 1 1 0 1 1 1 0 1 0 1 1 1 1 1 1 2 3 5 6 7 5 5 5 4 3 8 9 10 10 11 11 12 12 12 11 11 8 7 8 8 8 10 10 11 12 12
1 1 1 1 1 1 1 1 1 1 1 0 1 1 1 1 2 2 3 5 5 4 4 3 4 4 7 8 9 10 10 11 12 12 10 11 9 7 8 8 11 10 9 9 9 11 11
0 0 1 1 1 0 0 0 0 0 0 0 1 1 1 2 2 2 2 2 -0 -1 -0 2 4 5 8 9 6 10 10 10 11 10 10 9 8 9 9 9 9 9 9 9 9 11 11
-0 -1 -0 -0 0 -0 -0 -0 -0 0 0 0 0 0 0 2 2 2 2 1 1 1 -0 3 5 5 5 6 5 7 9 10 10 9 9 9 10 10 9 9 9 9 8 9 9 10 11
-1 -1 -1 -0 -0 0 0 0 -0 -1 -1 -0 -1 -0 0 2 3 1 1 2 3 2 1 4 6 6 7 7 5 9 9 10 9 9 9 8 9 10 9 10 9 8 10 10 9 9 8
-1 -1 -1 -1 -0 0 -0 -1 -1 -1 -1 -0 -1 -0 0 1 1 1 1 2 3 3 1 8 8 9 8 7 9 9 8 10 9 9 9 9 8 8 9 9 9 9 10 9 9 8 9
-1 -1 -1 -1 -1 -2 -1 -2 -1 -1 -1 -1 -1 -0 0 1 1 0 1 2 3 2 2 6 9 9 8 9 9 9 9 10 10 8 9 9 9 9 9 9 9 10 9 9 10 10 8
-2 -2 -1 -2 -2 -2 -1 -1 -1 -1 -1 -1 -1 -0 0 0 0 0 1 2 1 1 5 6 6 7 8 8 10 9 8 8 7 7 7 8 8 9 9 9 9 9 8 6 7 8 8
-2 -2 -2 -2 -2 -2 -2 -2 -1 -1 -1 -2 -1 -0 0 0 -0 -0 0 -0 0 4 3 6 5 6 7 5 7 10 8 7 8 7 6 6 7 7 8 9 8 7 8 8 8 8 9
-2 -2 -3 -3 -2 -2 -2 -2 -2 -2 -2 -2 -1 -0 0 -0 -0 -0 -0 -1 1 3 3 3 4 5 5 5 3 7 8 7 7 7 9 7 8 8 8 8 9 8 7 9 8 8 9
-2 -2 -3 -3 -2 -2 -2 -2 -2 -2 -2 -2 -2 -1 -1 -1 -1 -1 -2 -0 1 3 3 3 3 4 4 4 4 4 7 8 8 8 9 8 7 9 9 9 9 9 8 8 8 7 9
-3 -3 -3 -3 -2 -2 -2 -2 -2 -2 -2 -2 -2 -1 -1 -1 -2 -1 -3 -1 0 2 2 2 3 2 4 3 3 3 7 6 7 7 8 8 8 8 9 8 7 8 8 7 7 8 9
-3 -3 -3 -3 -2 -2 -2 -2 -2 -2 -2 -2 -2 -5 -2 -2 -3 -2 -5 0 1 1 2 2 2 3 3 3 3 3 4 6 6 7 6 6 7 6 7 8 8 9 8 9 8 8 8
-4 -4 -4 -3 -2 -2 -2 -2 -2 -2 -3 -3 -3 -3 -2 -2 -7 -5 -1 -0 1 0 1 2 2 3 2 3 2 3 3 5 6 6 6 6 6 6 8 8 7 7 8 7 6 7 8
-3 -4 -3 -3 -2 -3 -2 -2 -2 -2 -3 -3 -3 -4 -2 -3 -3 -4 -2 -1 -0 1 1 1 2 2 3 3 3 2 3 4 6 6 6 7 5 6 7 6 5 4 7 8 7 6 6
-4 -3 -3 -3 -3 -3 -3 -3 -3 -3 -3 -3 -3 -5 -4 -5 -3 -4 -2 -2 -1 -1 1 2 2 2 2 2 3 3 3 4 6 6 5 5 5 5 5 5 6 6 6 6 6 7 7
-4 -4 -3 -3 -3 -3 -3 -3 -3 -3 -3 -3 -3 -3 -3 -3 -2 -3 -1 -1 -1 -0 -0 1 1 2 3 2 4 3 3 6 6 5 5 4 4 4 5 6 6 6 7 6 7 7 7
-4 -4 -3 -3 -3 -3 -3 -2 -3 -3 -3 -4 -4 -4 -3 -2 -2 -4 -2 -1 -1 -1 1 1 2 1 2 4 4 5 5 5 5 5 4 4 3 2 2 5 4 5 6 7 7 8 8
-3 -3 -3 -3 -3 -3 -3 -3 -2 -3 -3 -3 -3 -3 -4 -4 -3 -1 0 1 -1 -1 -1 1 1 2 3 3 4 5 4 4 4 4 4 4 4 3 3 3 2 7 7 7 6 7 8
-3 -3 -3 -3 -3 -3 -3 -2 -2 -2 -2 -3 -3 -3 -4 -4 -2 -1 -0 -0 -0 -1 -1 -0 -1 1 2 2 3 4 4 4 4 3 3 3 3 3 2 2 5 6 6 6 4 6 7
-3 -3 -3 -3 -3 -3 -3 -2 -2 -2 -2 -2 -3 -3 -4 -4 -3 -2 -2 -1 -1 -1 0 1 0 1 2 1 2 3 3 5 5 5 3 2 3 3 2 3 2 6 7 7 6 5 3
-3 -3 -3 -3 -3 -3 -3 -2 -2 -2 -2 -2 -2 -2 -3 -4 -2 -2 -2 -2 -1 -1 -1 -1 -0 1 2 -0 0 1 3 4 4 5 4 3 3 4 3 4 4 5 5 7 6 5 1
-4 -4 -4 -3 -3 -3 -3 -2 -2 -2 -2 -2 -2 -2 -3 -4 -2 -2 -2 -2 -2 -2 -3 -0 -1 -0 0 1 2 1 1 3 3 4 5 4 3 4 4 4 4 4 6 6 4 1 -0
-4 -4 -3 -3 -3 -3 -2 -2 -2 -2 -2 -2 -2 -2 -3 -3 -3 -2 -2 -1 -1 -1 -2 -1 -2 -1 -1 1 1 3 2 1 1 2 3 3 3 3 4 3 2 0 1 -0 1 -0 -0

GFSGBSN_850_temp_087.txt.gz
Temp
5 4 4 3 3 3 3 3 3 3 4 4 5 5 5 5 6 8 8 8 8 9 9 8 8 8 8 7 11 13 13 13 12 12 12 12 12 12 12 12 12 12 13 14 14 14 14
4 4 3 3 4 3 3 3 3 3 3 2 4 5 6 5 7 7 8 8 8 8 9 9 9 8 6 4 12 13 12 12 12 12 12 12 12 13 13 13 13 13 13 13 14 14 14
4 3 3 3 3 3 3 3 3 3 3 3 3 4 5 5 6 7 8 8 8 9 9 9 8 7 4 9 11 11 13 12 12 11 12 12 12 12 13 13 13 13 13 14 14 15 15
2 2 2 2 2 2 2 2 2 1 1 2 3 4 5 5 6 6 7 8 8 8 8 8 7 7 5 10 11 11 11 12 12 11 11 12 12 12 12 13 12 13 13 13 14 14 14
1 2 1 1 1 1 1 1 1 1 1 1 2 3 4 4 5 6 7 8 8 7 5 5 6 5 6 9 9 9 10 10 11 11 11 11 11 12 11 12 12 10 12 12 13 14 15
2 1 1 0 1 1 1 1 1 1 1 1 1 2 4 4 4 5 6 7 6 5 4 4 3 3 8 8 9 10 10 10 10 11 10 10 10 11 10 12 11 11 11 11 13 14 14
1 1 1 1 1 1 1 1 1 1 1 1 1 2 4 4 4 4 5 6 5 4 4 2 5 3 6 11 9 9 10 10 10 10 10 10 10 10 11 12 12 11 11 11 11 12 12
1 1 0 0 1 0 0 0 0 1 1 1 1 2 3 3 3 3 3 1 -1 -2 -1 4 5 2 5 4 4 6 9 9 10 10 10 10 10 11 11 10 11 11 11 11 11 12 12
0 -0 -0 0 1 1 1 0 1 1 1 1 2 2 2 3 2 3 2 1 0 1 -0 1 5 4 5 5 3 5 7 9 10 9 10 10 11 11 10 10 10 10 10 10 11 11 12
-0 -0 -1 -0 0 1 1 1 1 1 1 1 1 1 1 2 2 1 1 2 2 2 2 5 6 7 7 6 5 8 7 9 10 10 10 10 11 10 10 10 10 10 11 11 10 10 11
-1 -1 -1 -0 -0 0 1 1 1 0 -0 0 1 1 1 0 0 0 1 2 2 2 3 7 8 8 7 7 8 9 8 8 10 10 10 10 9 9 10 10 10 11 11 10 10 10 10
-1 -1 -1 -1 -1 -0 -0 0 -0 -1 -1 -0 0 1 0 0 0 0 1 2 3 3 3 5 7 6 7 8 8 8 7 8 9 9 9 10 9 10 10 10 11 10 10 10 10 10 9
-2 -2 -2 -2 -2 -1 -1 -1 -1 -1 -1 -1 0 0 -0 -0 -0 0 1 2 2 2 5 5 4 5 6 6 7 7 8 7 8 8 8 8 9 9 9 10 9 10 9 10 9 9 10
-2 -2 -2 -2 -2 -2 -2 -2 -1 -1 -1 -1 -0 -0 -0 -0 0 0 1 1 1 4 4 4 4 5 6 5 6 5 5 7 8 8 9 9 8 8 9 10 10 9 9 10 10 10 11
-2 -2 -2 -3 -3 -2 -2 -2 -2 -2 -2 -1 -1 -0 -0 -1 -0 -0 0 -1 2 2 2 2 4 5 5 5 5 5 4 7 9 8 9 8 8 8 9 9 10 9 8 10 9 10 10
-2 -2 -2 -3 -2 -2 -2 -2 -2 -2 -2 -1 -1 -1 -1 -1 -1 -1 -2 -0 1 2 2 2 2 4 2 4 4 4 4 7 9 8 9 9 8 9 9 9 9 10 10 8 8 8 9
-2 -2 -3 -3 -2 -2 -2 -2 -2 -2 -2 -1 -1 -1 -2 -1 -2 -1 -2 -1 1 1 1 1 2 2 2 3 4 3 4 5 6 8 9 9 9 8 8 9 9 8 8 8 8 8 10
-3 -3 -3 -3 -2 -2 -2 -2 -2 -2 -2 -2 -2 -4 -2 -2 -2 -3 -2 -0 -0 1 1 1 2 2 2 3 2 3 3 3 1 4 8 7 8 8 8 9 9 9 9 9 7 8 8
-4 -3 -3 -3 -2 -2 -2 -2 -2 -2 -2 -2 -2 -3 -2 -2 -4 -3 -1 -0 0 0 1 1 2 3 3 2 1 3 3 4 1 3 7 8 8 8 7 8 8 8 6 6 6 6 8
-3 -4 -3 -3 -2 -2 -3 -3 -3 -3 -2 -2 -3 -5 -3 -3 -3 -3 -2 -1 -0 1 1 1 1 2 2 2 3 2 2 3 1 5 6 7 7 8 9 8 7 6 8 8 8 7 9
-4 -4 -3 -3 -2 -3 -3 -3 -3 -3 -2 -2 -3 -4 -4 -5 -2 -3 -3 -3 -1 -1 0 1 1 1 2 2 3 2 3 2 2 4 6 7 7 6 7 7 7 7 7 8 7 8 7
-4 -4 -3 -3 -3 -3 -3 -3 -3 -3 -3 -3 -4 -4 -3 -3 -3 -5 -3 -2 -1 -1 -1 0 -0 1 2 1 3 3 3 3 4 5 6 5 5 5 6 6 7 7 8 8 7 7 8
-4 -4 -4 -3 -3 -3 -3 -3 -3 -3 -3 -3 -3 -3 -4 -3 -2 -3 -3 -2 -1 -1 0 1 -0 0 2 3 3 3 3 3 4 5 5 5 5 5 6 5 6 6 7 8 8 8 8
-4 -3 -3 -3 -3 -3 -3 -3 -2 -3 -3 -3 -3 -3 -4 -3 -2 -1 -1 -1 -0 -2 -2 -1 -0 0 2 2 2 2 2 3 4 5 5 4 4 4 5 4 5 8 8 7 7 7 7
-4 -3 -3 -3 -3 -3 -3 -3 -3 -3 -3 -3 -3 -3 -4 -3 -2 -1 -1 -1 -1 -1 -1 -1 -2 -1 0 1 3 4 4 5 6 4 4 4 5 4 4 5 6 7 7 7 7 7 3
-3 -3 -3 -3 -3 -3 -3 -3 -3 -2 -2 -2 -2 -3 -3 -4 -2 -2 -2 -1 -1 -1 -0 -0 -1 -1 -1 1 3 4 4 5 5 5 3 4 4 5 4 4 5 7 6 6 7 6 2
-3 -3 -3 -3 -3 -3 -3 -3 -2 -2 -2 -2 -2 -3 -3 -4 -3 -2 -2 -2 -1 -1 -1 -1 -1 -1 1 2 3 3 4 4 5 5 5 3 3 4 4 4 6 3 4 6 6 4 -0
-3 -3 -3 -3 -3 -3 -3 -3 -2 -2 -2 -2 -2 -2 -3 -3 -2 -2 -2 -2 -2 -2 -2 -1 -0 1 1 2 3 2 2 3 3 4 4 5 4 4 5 5 4 1 5 4 3 -0 -1
-4 -4 -4 -4 -3 -3 -3 -3 -2 -2 -2 -2 -2 -2 -2 -3 -2 -2 -2 -1 -1 -2 -2 -2 -1 -1 -1 0 1 2 3 2 2 3 3 4 2 2 4 3 -0 -2 -2 -2 -2 -2 -2